Tracking 21676 objects as of 29-Oct-2020
HD Live streaming from Space Station
objects crossing your sky now

GORIZONT 6

Track GORIZONT 6 now!
GORIZONT 6 is classified as:


NORAD ID: 13624
Int'l Code: 1982-103A
Perigee: 35,794.6 km
Apogee: 35,796.7 km
Inclination: 11.7 °
Period: 1,436.2 minutes
Semi major axis: 42166 km
RCS: 3.1622 m2 (large)
Launch date: October 20, 1982
Source: Commonwealth of Independent States (former USSR) (CIS)
Launch site: TYURATAM MISSILE AND SPACE COMPLEX (TTMTR)
aabbcc
Your satellite tracking list
Your tracking list is empty




NASA's NSSDC Master Catalog

Two Line Element Set (TLE):
1 13624U 82103A   20302.41861799 -.00000239 +00000-0 +00000-0 0  9997
2 13624 011.6779 320.3944 0000249 045.7386 151.0168 01.00265001100314
Source of the keplerian elements: AFSPC